Eugene, OR

10:04 PM PST on December 12, 2019 (GMT -0800)
Mahlon Sweet

Weather History for KEUG - November, 2019

Change the Weather History Date:

Sunday, November 17, 2019

  Actual Average Record
Temperature  
Mean Temperature 53 °F 45 °F  
Max Temperature 63 °F 52 °F 70 °F (1932)
Min Temperature 42 °F 38 °F 18 °F (1955)
Degree Days  
Heating Degree Days 12 20  
Month to date heating degree days 307 316  
Since 1 July heating degree days 903 886  
Cooling Degree Days 0 0  
Month to date cooling degree days 0 0  
Year to date cooling degree days 353 239  
Growing Degree Days 2 (Base 50)    
Moisture  
Dew Point 46 °F    
Average Humidity 84    
Maximum Humidity 100    
Minimum Humidity 67    
Precipitation  
Precipitation T in 0.27 in 1.78 in (1950)
Month to date precipitation 0.33 3.97  
Year to date precipitation 30.07 34.52  
Sea Level Pressure  
Sea Level Pressure 30.22 in    
Wind  
Wind Speed 6 mph (South)    
Max Wind Speed 10 mph    
Max Gust Speed 12 mph    
Visibility 6 miles    
Events Fog , Rain    
T = Trace of Precipitation, MM = Missing Value Source: NWS Daily Summary

Daily Weather History Graph

Daily Weather History Graph

Search for Another Location

Airport or City:

Astronomy

Nov. 17, 2019 Rise Set
Actual Time 7:10 AM PST 4:44 PM PST
Civil Twilight 6:39 AM PST 5:15 PM PST
Nautical Twilight 6:04 AM PST 5:51 PM PST
Astronomical Twilight 5:29 AM PST 6:25 PM PST
Moon 9:24 PM PST (11/17) 12:03 PM PST (11/17)
Length of Visible Light 10h 36m
Length of Day
9h 33m
Waning Gibbous, 72% of the Moon is Illuminated
Nov 17
Waning Gibbous
Nov 19
Last Quarter
Nov 26
New
Dec 3
First Quarter
Dec 11
Full

Hourly Weather History & Observations

Time (PST) Temp. Windchill Dew Point Humidity Pressure Visibility Wind Dir Wind Speed Gust Speed Precip Events Conditions
12:20 AM 44.1 °F 39.5 °F 43.0 °F 96% 30.23 in 2.0 mi South 8.1 mph - N/A   Clear
12:27 AM 45.0 °F 40.6 °F 43.0 °F 93% 30.23 in 1.2 mi SSW 8.1 mph - N/A   Partly Cloudy
12:33 AM 44.1 °F 40.1 °F 42.1 °F 93% 30.24 in 0.8 mi SW 6.9 mph - N/A   Mist
12:54 AM 45.0 °F 42.6 °F 44.1 °F 97% 30.24 in 0.8 mi WSW 4.6 mph - N/A   Mist
1:09 AM 45.0 °F 42.6 °F 44.1 °F 97% 30.23 in 0.5 mi SW 4.6 mph - N/A Fog Fog
1:16 AM 45.0 °F 42.6 °F 44.1 °F 97% 30.22 in 0.2 mi SSW 4.6 mph - N/A Fog Fog
1:27 AM 45.0 °F 42.6 °F 43.0 °F 93% 30.22 in 0.5 mi SW 4.6 mph - N/A Fog Fog
1:40 AM 43.0 °F 38.8 °F 42.1 °F 97% 30.23 in 1.0 mi SW 6.9 mph - N/A   Mist
1:47 AM 44.1 °F 40.8 °F 42.1 °F 93% 30.23 in 0.5 mi WSW 5.8 mph - N/A Fog Fog
2:07 AM 43.0 °F 40.3 °F 41.0 °F 93% 30.23 in 0.2 mi South 4.6 mph - N/A Fog Fog
2:14 AM 43.0 °F 38.8 °F 41.0 °F 93% 30.23 in 0.5 mi South 6.9 mph - N/A Fog Fog
2:29 AM 44.1 °F 39.0 °F 42.1 °F 93% 30.22 in 1.2 mi South 9.2 mph - N/A   Scattered Clouds
2:33 AM 44.1 °F 39.0 °F 42.1 °F 93% 30.22 in 2.0 mi South 9.2 mph - N/A   Partly Cloudy
2:54 AM 43.0 °F 38.8 °F 41.0 °F 93% 30.22 in 6.0 mi SSW 6.9 mph - N/A   Partly Cloudy
3:54 AM 44.1 °F 40.1 °F 42.1 °F 93% 30.21 in 10.0 mi SW 6.9 mph - N/A   Clear
4:54 AM 44.1 °F 39.5 °F 42.1 °F 93% 30.21 in 10.0 mi SSW 8.1 mph - N/A   Clear
5:54 AM 43.0 °F 39.5 °F 41.0 °F 93% 30.20 in 10.0 mi SSW 5.8 mph - N/A   Partly Cloudy
6:54 AM 45.0 °F 41.2 °F 42.1 °F 90% 30.23 in 10.0 mi WSW 6.9 mph - N/A   Mostly Cloudy
7:54 AM 46.9 °F - 44.1 °F 90% 30.23 in 10.0 mi SSE 4.6 mph - N/A   Overcast
8:54 AM 51.1 °F - 46.0 °F 83% 30.25 in 10.0 mi SSE 8.1 mph - N/A   Mostly Cloudy
9:54 AM 53.1 °F - 46.9 °F 80% 30.26 in 10.0 mi SSE 5.8 mph - N/A   Mostly Cloudy
10:54 AM 55.9 °F - 48.0 °F 75% 30.27 in 10.0 mi SSE 6.9 mph - N/A   Mostly Cloudy
11:54 AM 57.9 °F - 50.0 °F 75% 30.24 in 10.0 mi SE 4.6 mph - 0.00 in Rain Light Rain
12:54 PM 61.0 °F - 50.0 °F 67% 30.23 in 10.0 mi SSW 5.8 mph - 0.00 in   Mostly Cloudy
1:54 PM 61.0 °F - 51.1 °F 70% 30.22 in 10.0 mi SW 4.6 mph - N/A   Mostly Cloudy
2:54 PM 62.1 °F - 52.0 °F 70% 30.22 in 10.0 mi ESE 3.5 mph - N/A   Mostly Cloudy
3:54 PM 61.0 °F - 52.0 °F 72% 30.22 in 10.0 mi SE 3.5 mph - N/A   Overcast
4:13 PM 60.1 °F - 52.0 °F 75% 30.21 in 10.0 mi East 5.8 mph - N/A   Mostly Cloudy
4:15 PM 60.1 °F - 53.1 °F 78% 30.21 in 10.0 mi ESE 5.8 mph - N/A   Mostly Cloudy
4:54 PM 57.0 °F - 52.0 °F 83% 30.20 in 10.0 mi SE 5.8 mph - N/A   Mostly Cloudy
5:54 PM 55.0 °F - 48.9 °F 80% 30.21 in 10.0 mi SW 3.5 mph - N/A   Mostly Cloudy
6:29 PM 54.0 °F - 48.9 °F 83% 30.20 in 10.0 mi South 4.6 mph - N/A   Overcast
6:54 PM 55.0 °F - 50.0 °F 83% 30.21 in 10.0 mi SSE 5.8 mph - N/A   Overcast
7:44 PM 53.1 °F - 48.9 °F 86% 30.20 in 10.0 mi SSW 4.6 mph - N/A   Mostly Cloudy
7:54 PM 53.1 °F - 48.9 °F 86% 30.21 in 10.0 mi SW 3.5 mph - N/A   Mostly Cloudy
8:54 PM 52.0 °F - 48.9 °F 89% 30.20 in 10.0 mi Calm Calm - N/A   Mostly Cloudy
9:54 PM 51.1 °F - 48.0 °F 89% 30.19 in 9.0 mi Calm Calm - N/A   Mostly Cloudy
10:47 PM 46.0 °F - 45.0 °F 96% 30.18 in 2.5 mi Calm Calm - N/A Fog Scattered Clouds
10:54 PM 46.9 °F - 45.0 °F 93% 30.18 in 2.0 mi SSW 5.8 mph - N/A Fog Scattered Clouds
11:01 PM 46.9 °F - 46.0 °F 97% 30.18 in 1.8 mi SSW 4.6 mph - N/A Fog Scattered Clouds
11:39 PM 46.0 °F 43.9 °F 44.1 °F 93% 30.16 in 3.0 mi South 4.6 mph - N/A   Partly Cloudy
11:54 PM 44.1 °F 39.5 °F 43.0 °F 96% 30.17 in 2.5 mi South 8.1 mph - N/A   Clear